Regional Weather Roundup
Issued by NWS

Home | Current Version | Previous Version | Graphics & Text | Print | Product List | Glossary On
Versions: 1 2 3 4 5 6 7 8 9 10 11 12 13 14 15 16 17 18 19 20 21 22 23 24 25 26 27 28 29 30 31 32 33 34 35 36 37 38 39 40 41 42 43 44 45 46 47 48 49 50
000
ASUS43 KIND 232309
RWRIN

WEATHER ROUNDUP FOR INDIANA
NATIONAL WEATHER SERVICE INDIANAPOLIS IN
700 PM EDT SAT MAY 23 2015

NOTE: "FAIR" INDICATES FEW OR NO CLOUDS BELOW 12,000 FEET WITH NO
SIGNIFICANT WEATHER AND/OR OBSTRUCTIONS TO VISIBILITY.

* - STATION DOES NOT REPORT WEATHER SUCH AS PRECIPITATION OR FOG.

+ - STATION NOT QUALITY CONTROLLED BY THE NATIONAL WEATHER SERVICE.
    USE DATA WITH CAUTION...ESPECIALLY DEWPOINT AND RELATIVE
    HUMIDITY OBSERVATIONS.

INZ001>003-010>013-019-020-240000-
NORTHWEST INDIANA

CITY           SKY/WX    TMP DP  RH WIND       PRES   REMARKS
KNOX *+        MOSUNNY   79  43  27 SW9       30.21F
LA PORTE +     MOSUNNY   81  40  23 SW10      30.22F
MICHIGAN CITY+ MOSUNNY   77  43  29 NE8       30.22F
MONTICELLO +   SUNNY     78  49  36 SE5       30.23S
RENSSELAER +   SUNNY     79  41  25 S10       30.22F
VALPARAISO     MOSUNNY   79  42  26 S8        30.22F

$$

LMZ046-743>745-240000-
SOUTHERN LAKE MICHIGAN

STATION/POSITION TIME  TEMP    WIND        PRES    WAVE
                       AIR SEA DIR/SP/G            HT
                 (UTC) (F)     (DEG/KT/KT) (MB)    (FT)
BURNS HARBOR     2300   63      80/ 13/ 15 1023.4S
MICHIGAN CITY    2300   65      40/ 16/ 16   N/A
5NW MICH CITY    2300   57 53   80/  6/  8   N/A     1

$$

INZ004-005-014>016-021>024-240000-
NORTH CENTRAL INDIANA

CITY           SKY/WX    TMP DP  RH WIND       PRES   REMARKS
GOSHEN         SUNNY     76  46  34 W7        30.23F
LOGANSPORT +   SUNNY     77  32  19 S10       30.24F
PERU/GRISSOM   SUNNY     79  45  30 S10       30.23F
ROCHESTER +    SUNNY     81  43  26 S6        30.24F
SOUTH BEND     PTSUNNY   80  39  23 S8        30.23F
WARSAW +       MOSUNNY   77  43  29 CALM      30.24F

$$

INZ006>009-017-018-025>027-240000-
NORTHEAST INDIANA

CITY           SKY/WX    TMP DP  RH WIND       PRES   REMARKS
ANGOLA *+      SUNNY     77  70  78 W6        30.26F
AUBURN +       MOSUNNY   73  45  35 CALM      30.26F
FORT WAYNE     MOSUNNY   78  46  32 SW5       30.26F
HUNTINGTON +   MOSUNNY   77  44  30 SW5       30.25F

$$

INZ028-029-035-036-043>045-051>053-240000-
WEST CENTRAL INDIANA

CITY           SKY/WX    TMP DP  RH WIND       PRES   REMARKS
CRAWFORDSVL +  SUNNY     76  34  22 SE6       30.25S
GREENCASTLE +  SUNNY     73  41  31 S7        30.26S
LAFAYETTE      SUNNY     77  44  30 S6        30.23F
TERRE HAUTE    SUNNY     77  48  35 S7        30.24F

$$

INZ030>032-037>040-046>048-054>057-064-065-240000-
CENTRAL INDIANA

CITY           SKY/WX    TMP DP  RH WIND       PRES   REMARKS
CP ATTERBURY + SUNNY     75  46  35 S3        30.26F
FRANKFORT +    SUNNY     79  42  26 SE5       30.26F
GREENWOOD *+   SUNNY     77  32  19 S9        30.26F
INDIANAPOLIS   PTSUNNY   77  43  29 S10       30.24F
-EAGLE CREEK   SUNNY     77  40  26 VRB6      30.25F
KOKOMO *+      SUNNY     77  45  31 S8        30.24F
MARION +       MOSUNNY   76  40  27 SW9       30.25F
MT COMFORT *+  SUNNY     79   9   7 S8        30.26F
SHELBYVILLE    SUNNY     79  42  26 S13       30.25F
ZIONSVILLE +   SUNNY     79  35  20 SE13      30.26F

$$

INZ033-034-041-042-049-050-058-059-240000-
EAST CENTRAL INDIANA

CITY           SKY/WX    TMP DP  RH WIND       PRES   REMARKS
MUNCIE         MOSUNNY   79  41  25 S8        30.26F

$$

INZ060-061-067>069-081>083-085>088-240000-
SOUTHWEST INDIANA

CITY           SKY/WX    TMP DP  RH WIND       PRES   REMARKS
EVANSVILLE     MOSUNNY   78  46  32 SE8       30.23F
HUNTINGBURG *+ SUNNY     77  46  33 SE10      30.24F
WASHINGTON +   SUNNY     78  41  26 SE8       30.23F

$$

INZ062-063-066-070>080-084-089>092-240000-
SOUTH CENTRAL AND SOUTHEAST INDIANA

CITY           SKY/WX    TMP DP  RH WIND       PRES   REMARKS
BLOOMINGTON    SUNNY     77  46  33 SE7       30.25F
MADISON *+     MOSUNNY   79  37  22 SE6       30.28F
NORTH VERNON + MOSUNNY   77  41  27 SE6       30.27F
SEYMOUR +      SUNNY     81  50  34 SE8       30.25F

$$



USA.gov is the U.S. government's official web portal to all federal, state and local government web resources and services.